OneWeb SL0114

operational
NORAD ID: 47292 Int'l Des: 2020-100 Owner: ONEWEB Country: UK Constellation: oneweb
LEOCIRCULARPOLARONEWEB_TYPE

OneWeb SL0114について

説明を読み込み中...

リアルタイム位置

3D地球を読み込み中...

次回通過

高度履歴

Altitude vs Time

uPlot chart will show altitude changes over time

軌道要素

1 47292U 20100AL 26062.36418120 -.00012375 00000-0 -34449-1 0 9993
2 47292 87.8995 11.6612 0001794 73.9975 286.1351 13.12503771250799
Epoch: Mar 3, 2026 • Age: 34 hours

現在のステータス

高度 1228.9 km
速度 7.24 km/s
衛星直下点 -37.39°S, 113.54°W
打ち上げ日 Dec 18, 2020
運用期間 5.2 years
タイプ internet

技術仕様

分類 Payload
質量 148.00 kg
乾燥質量 140.00 kg
総質量 148.00 kg
長さ 1.30 m
直径 1.00 m
スパン 5.00 m
形状 Trapezoid+2 pan
製造者 ONEWUS
バスタイプ ARROW
フェーズステータス In Orbit
所有者/国 ONEWEB/UK

大規模コンステレーション

Loading constellations...